Weather History for Kalamazoo, MI

Change the Weather History Date:

Monday, May 20, 2013

  Actual Average Record
Temperature  
Mean Temperature 78 °F 60 °F  
Max Temperature 88 °F 71 °F 91 °F (1977)
Min Temperature 67 °F 49 °F 30 °F (2002)
Degree Days  
Heating Degree Days 0 6  
Month to date heating degree days 81 170  
Since 1 July heating degree days 6213 6313  
Cooling Degree Days 13 1  
Month to date cooling degree days 42 14  
Year to date cooling degree days 44 18  
Growing Degree Days 28 (Base 50)    
Moisture  
Dew Point 65 °F    
Average Humidity 64    
Maximum Humidity 87    
Minimum Humidity 40    
Precipitation  
Precipitation 0.00 in 0.14 in 0.80 in (1960)
Month to date precipitation 0.83 2.54  
Year to date precipitation 12.42 11.11  
Sea Level Pressure  
Sea Level Pressure 29.83 in    
Wind  
Wind Speed 10 mph (South)    
Max Wind Speed 17 mph    
Max Gust Speed 30 mph    
Visibility 9 miles    
Events      
T = Trace of Precipitation, MM = Missing Value Source: NWS Daily Summary

Daily Weather History Graph

Daily Weather History Graph

Search for Another Location

Airport:

Trip Planner

Search our weather history database for the weather conditions in past years. The results will help you decide how hot, cold, wet, or windy it might be!

Date:

Astronomy

May. 20, 2013 Rise Set
Actual Time 6:16 AM EDT 9:01 PM EDT
Civil Twilight 5:43 AM EDT 9:34 PM EDT
Nautical Twilight 5:02 AM EDT 10:15 PM EDT
Astronomical Twilight 4:15 AM EDT 11:03 PM EDT
Moon 4:03 PM EDT (5/20) 3:16 AM EDT (5/20)
Length of Visible Light 15h 51m
Length of Day
14h 45m
Waxing Gibbous, 75% of the Moon is Illuminated
May 20
Waxing Gibbous
May 25
Full
May 31
Last Quarter
Jun 8
New
Jun 16
First Quarter

Hourly Weather History & Observations

Time (EDT) Temp. Heat Index Dew Point Humidity Pressure Visibility Wind Dir Wind Speed Gust Speed Precip Events Conditions
12:53 AM 70.0 °F - 61.0 °F 73% 29.87 in 10.0 mi ESE 3.5 mph - N/A   Clear
1:53 AM 71.1 °F - 61.0 °F 70% 29.86 in 10.0 mi SSE 5.8 mph - N/A   Clear
2:53 AM 70.0 °F - 61.0 °F 73% 29.86 in 10.0 mi SSE 5.8 mph - N/A   Clear
3:53 AM 70.0 °F - 62.1 °F 76% 29.85 in 10.0 mi SSE 3.5 mph - N/A   Clear
4:53 AM 70.0 °F - 62.1 °F 76% 29.86 in 10.0 mi SSE 4.6 mph - N/A   Partly Cloudy
5:53 AM 68.0 °F - 63.0 °F 84% 29.83 in 9.0 mi SE 4.6 mph - N/A   Clear
6:53 AM 68.0 °F - 64.0 °F 87% 29.85 in 8.0 mi North - - N/A   Clear
7:25 AM 69.8 °F - 64.4 °F 83% 29.88 in 7.0 mi South 8.1 mph - N/A   Mostly Cloudy
7:53 AM 71.1 °F - 66.0 °F 84% 29.87 in 7.0 mi South 8.1 mph - N/A   Partly Cloudy
8:53 AM 73.9 °F - 68.0 °F 82% 29.88 in 7.0 mi South 11.5 mph - N/A   Mostly Cloudy
9:36 AM 75.2 °F - 68.0 °F 78% 29.89 in 7.0 mi South 12.7 mph 19.6 mph N/A   Mostly Cloudy
9:53 AM 75.9 °F - 68.0 °F 76% 29.88 in 7.0 mi South 12.7 mph - N/A   Overcast
10:53 AM 78.1 °F - 68.0 °F 71% 29.86 in 8.0 mi Variable 6.9 mph - N/A   Mostly Cloudy
11:53 AM 81.0 °F 84.1 °F 69.1 °F 67% 29.85 in 9.0 mi South 13.8 mph 18.4 mph N/A   Mostly Cloudy
12:53 PM 82.0 °F 85.5 °F 69.1 °F 65% 29.85 in 9.0 mi South 8.1 mph - N/A   Mostly Cloudy
1:53 PM 84.9 °F 88.2 °F 68.0 °F 57% 29.81 in 10.0 mi South 13.8 mph 23.0 mph N/A   Partly Cloudy
2:53 PM 87.1 °F 89.2 °F 66.0 °F 49% 29.80 in 10.0 mi South 17.3 mph 24.2 mph N/A   Scattered Clouds
3:53 PM 87.1 °F 88.9 °F 64.9 °F 48% 29.78 in 10.0 mi South 17.3 mph 27.6 mph N/A   Scattered Clouds
4:53 PM 86.0 °F 86.8 °F 63.0 °F 46% 29.77 in 10.0 mi South 12.7 mph - N/A   Mostly Cloudy
5:53 PM 86.0 °F 87.3 °F 64.0 °F 48% 29.78 in 10.0 mi South 15.0 mph 19.6 mph N/A   Mostly Cloudy
6:53 PM 87.1 °F 87.0 °F 61.0 °F 41% 29.77 in 10.0 mi SSW 16.1 mph 23.0 mph N/A   Scattered Clouds
7:53 PM 82.9 °F 83.7 °F 62.1 °F 49% 29.78 in 10.0 mi SSW 12.7 mph - N/A   Partly Cloudy
8:53 PM 80.1 °F 81.2 °F 62.1 °F 54% 29.78 in 10.0 mi South 6.9 mph - N/A   Clear
9:53 PM 78.1 °F - 64.9 °F 64% 29.78 in 10.0 mi SSE 5.8 mph - N/A   Clear
10:53 PM 77.0 °F - 64.9 °F 66% 29.80 in 10.0 mi SSE 5.8 mph - N/A   Clear
11:53 PM 73.9 °F - 64.9 °F 73% 29.80 in 10.0 mi South 6.9 mph - N/A   Clear